Find Starlink 5649

NORAD ID: 55354 Int'l Des: 2023-013 Owner: SPXS Country: US Constellation: starlink operational
LEOCIRCULAR

Live-Position

3D-Globus wird geladen...

Über Starlink 5649

Beschreibung wird geladen...

Nächste Überflüge

Passes for default location (London). Set your location on the main map for personalized predictions.

Höhenverlauf

Loading altitude history...

Zweizeiliger Elementsatz

1 55354U 23013Z 26126.92248528 .00000444 00000-0 26256-4 0 9995
2 55354 43.0029 334.1686 0001563 257.4830 102.5847 15.26742604180583
Epoch: 6. Mai 2026 • Age: 26 hours

Aktueller Status

Höhe 485.9 km
Geschwindigkeit 7.62 km/s
Subsatellitenpunkt -5.01°S, 73.58°W
Startdatum 26. Jan. 2023
Alter 3.2 years
Typ internet

Technische Details

Klassifizierung Payload
Masse 305.00 kg
Trockenmasse 290.00 kg
Gesamtmasse 305.00 kg
Länge 0.20 m
Durchmesser 2.80 m
Spannweite 9.00 m
Form Box + pan
Hersteller SPXS
Bus-Typ Starlink
Phasenstatus In Orbit
Besitzer/Staat SPXS/US

Most Searched